Wind_Speed
17 20 21 20 22 24 23 22 21 18 17 20 20 19 19 17 16 15 14 13 11 11 13 14 14 17 19 19 21 22 21 19 17 15 13 11 10 12 14 14 12 10 8 7 8 7 7 6 4 3 3 2 2 2 1 2 4 1 2 3 6 7 6 5 5 6 8 9 10 11 11 10 9 10 11 9 10 12 12 11 12 13 14 14 15
18 19 21 22 22 22 23 22 21 17 16 20 20 18 18 17 17 16 16 14 12 12 13 15 14 16 19 16 17 21 22 20 18 16 13 12 11 11 14 15 13 11 9 8 8 8 8 7 5 4 4 3 3 3 1 3 5 0 4 6 7 6 5 4 5 6 7 8 9 10 9 8 9 9 11 11 12 12 13 13 13 14 14 14 14
20 19 19 21 21 22 23 22 20 17 18 22 21 19 18 17 16 16 17 16 14 14 14 16 15 15 19 18 18 21 22 21 19 16 13 12 11 10 12 15 14 12 10 9 8 8 8 7 6 5 4 3 3 2 1 4 4 2 5 7 6 5 5 4 5 6 7 8 8 8 8 8 8 8 10 13 13 14 14 14 14 14 13 13 13
20 21 19 19 21 22 22 21 19 16 20 24 22 20 18 16 16 16 15 13 14 15 15 17 16 14 18 20 21 21 21 21 18 15 13 12 11 10 10 12 13 13 11 10 9 8 8 8 7 5 4 4 4 3 3 4 3 4 6 6 6 5 4 4 5 6 7 6 6 6 6 7 8 9 11 13 14 14 14 13 13 12 12 12 13
19 22 22 21 23 23 22 21 19 16 19 24 23 21 18 16 17 16 12 10 11 15 17 19 17 15 16 19 22 22 21 20 18 15 14 12 11 10 10 10 11 12 12 11 11 10 9 9 7 5 5 5 4 3 3 3 3 5 7 6 5 4 4 4 4 5 5 5 5 5 5 7 9 11 12 12 12 12 12 12 12 12 12 12 13
19 20 23 24 25 26 25 23 21 16 16 22 24 22 21 19 17 14 11 10 11 14 17 19 19 16 16 18 21 22 22 20 18 16 14 12 11 11 10 9 9 10 11 11 12 11 10 10 8 6 6 6 5 3 3 3 3 6 7 6 5 4 4 4 4 4 3 3 4 4 5 7 10 11 12 12 12 12 12 12 12 12 12 13 14
20 20 21 23 25 27 28 27 24 19 14 18 23 24 22 19 15 13 12 12 12 13 15 18 20 17 17 20 20 22 22 20 18 16 15 14 12 12 11 11 10 10 10 10 11 13 13 12 10 9 7 8 7 4 4 5 5 6 8 7 5 4 3 3 3 2 2 3 3 3 5 8 10 11 11 12 12 11 12 12 11 11 12 13 14
18 18 18 20 22 25 29 30 27 22 17 16 21 24 21 17 14 15 16 14 12 12 14 16 18 17 19 21 22 23 22 19 18 16 15 15 13 12 12 12 12 11 11 10 10 12 14 14 12 11 10 11 10 5 5 6 6 7 8 7 5 3 3 3 1 1 3 3 2 4 6 8 9 10 11 11 10 10 11 11 11 11 13 13 14
15 14 15 17 19 21 25 30 30 26 21 19 23 25 21 17 15 17 18 16 13 13 13 15 16 16 19 21 21 23 21 19 18 17 16 15 14 13 12 12 12 13 12 12 12 12 14 14 14 13 12 12 11 7 6 7 6 7 8 7 4 2 2 3 3 3 3 0 4 6 7 8 9 9 10 10 9 9 10 10 11 11 12 13 13
15 14 14 17 19 19 20 24 29 30 26 23 27 29 22 17 18 20 22 17 15 14 14 15 15 14 18 20 21 21 20 19 18 17 17 16 15 13 12 12 12 13 13 14 14 13 14 15 15 15 14 14 13 9 8 8 7 8 8 5 2 1 1 4 4 3 2 4 6 6 6 7 8 8 9 8 8 9 9 9 10 11 12 12 13
15 16 17 18 19 20 18 17 22 30 33 29 31 32 26 20 22 25 25 19 16 15 14 15 14 13 14 17 20 20 19 19 18 18 18 18 17 14 13 13 12 13 14 15 16 15 16 16 16 15 14 15 15 13 11 11 12 11 9 6 4 2 3 6 4 3 3 6 6 5 6 7 7 8 8 8 8 7 8 9 10 11 11 12 13
12 13 15 18 20 21 21 19 18 24 32 33 33 35 33 29 29 28 25 20 16 16 16 16 14 11 11 13 17 20 20 20 20 21 22 21 18 15 14 13 13 15 15 16 16 17 17 17 17 15 14 15 15 15 16 15 15 15 12 9 7 4 6 8 5 3 6 7 5 4 5 6 7 7 7 7 7 7 8 9 10 10 11 12 12
11 10 10 13 17 21 23 23 19 19 28 36 37 37 35 35 35 30 26 21 17 17 18 17 15 12 10 10 13 16 19 20 21 22 23 22 20 17 15 14 15 16 16 16 16 17 18 17 17 16 15 15 14 15 17 17 18 17 13 11 9 6 8 9 6 3 7 6 4 4 4 5 6 6 7 6 6 6 8 9 9 10 11 11 12
9 10 9 10 12 16 19 21 19 18 25 35 38 35 33 33 35 31 25 22 19 19 20 19 17 16 13 9 8 10 13 16 18 19 21 22 22 20 17 16 17 16 16 17 16 17 18 17 16 16 16 15 14 14 15 17 18 17 14 12 10 8 11 12 7 4 7 5 3 3 4 4 5 6 6 6 5 6 7 8 9 10 11 11 12
6 7 9 10 10 11 14 17 19 19 23 30 33 34 34 33 34 31 24 22 20 19 22 24 20 17 13 8 7 7 8 12 14 16 19 21 23 21 18 17 16 15 15 15 16 17 17 17 16 16 16 16 15 14 15 17 18 17 14 14 12 9 13 14 7 5 7 5 2 2 3 4 5 5 5 5 5 6 7 8 9 10 10 11 12
4 6 7 10 11 11 12 14 18 20 23 28 32 34 36 35 36 33 25 22 21 20 24 27 22 17 13 7 7 7 7 9 12 15 18 20 23 21 19 17 15 14 14 12 15 16 16 16 16 16 17 17 17 16 15 16 17 16 14 15 13 12 16 15 8 7 7 5 2 1 2 3 5 5 5 5 5 6 6 7 8 9 10 11 12
4 5 7 9 10 12 12 13 16 19 22 27 29 31 33 36 37 36 32 27 23 20 22 26 25 21 16 9 7 7 7 9 10 12 16 19 21 20 20 19 15 15 14 12 13 15 15 16 15 16 17 17 18 18 16 15 16 15 13 15 15 14 18 14 8 8 8 5 2 1 2 3 4 4 5 5 6 6 7 8 10 11 12 12 12
7 6 6 8 10 11 12 13 15 18 21 25 27 30 33 36 37 36 37 35 26 19 20 25 25 24 21 15 8 4 5 9 7 6 12 16 18 18 20 20 17 16 15 12 13 14 14 14 15 16 17 18 19 18 17 16 16 14 14 15 16 18 19 13 10 10 8 5 2 0 1 2 4 4 4 5 6 7 7 9 11 12 12 12 12
9 8 7 8 10 12 13 15 15 17 21 23 26 31 35 38 40 38 38 38 32 23 21 23 24 25 26 23 16 8 6 10 8 4 6 10 15 17 17 18 17 16 16 14 13 14 14 13 14 15 17 18 19 17 16 16 16 15 15 16 18 21 18 13 11 11 8 6 3 1 1 3 3 3 4 5 6 7 9 10 11 11 11 11 12
9 9 9 8 10 12 14 15 16 17 20 22 25 30 34 37 40 40 37 36 37 34 26 22 24 25 25 26 23 17 13 11 11 9 5 5 10 13 15 15 17 17 16 16 15 14 15 14 13 14 16 18 19 18 17 16 15 15 15 18 20 21 16 13 13 12 9 6 3 2 2 3 3 3 4 5 6 7 9 9 9 9 9 9 10
8 9 10 10 10 11 13 15 17 19 20 21 25 28 32 34 35 38 37 35 36 38 31 26 28 26 22 24 24 21 20 17 15 14 10 6 6 9 13 14 14 17 17 16 16 16 15 14 14 14 16 18 19 17 16 14 13 14 16 21 22 19 15 13 13 12 9 6 4 3 2 3 3 3 4 5 7 8 8 9 8 8 8 8 8
8 8 9 11 11 12 12 14 16 19 21 22 24 27 29 32 33 35 37 36 36 37 36 33 30 26 24 24 23 23 22 20 19 17 13 9 7 7 13 14 13 15 16 15 15 16 15 14 15 15 16 19 18 15 13 11 12 17 21 23 22 17 14 14 14 11 9 7 5 5 3 3 3 3 5 6 7 8 9 9 8 7 7 7 7
10 10 9 10 11 12 12 13 15 17 19 22 25 27 28 29 31 34 37 38 40 40 40 38 32 27 27 27 25 26 25 22 21 20 15 11 8 7 11 15 14 13 14 14 14 14 14 14 16 16 17 18 16 12 11 12 15 21 25 23 19 16 15 15 14 11 9 8 7 6 4 4 4 5 6 7 8 8 8 7 6 5 4 4 5
12 12 11 10 10 11 11 13 15 17 18 19 23 26 28 28 31 36 38 39 42 41 40 41 37 32 31 31 29 27 27 25 22 20 19 16 12 8 9 13 13 12 12 12 12 13 14 14 14 14 14 14 13 11 12 16 21 24 25 22 18 17 17 16 14 11 10 9 8 7 6 6 7 9 10 9 9 7 7 6 6 4 2 1 2
14 14 13 12 12 12 12 12 13 16 18 19 20 23 26 28 30 34 38 39 40 40 41 42 41 37 35 34 30 27 27 27 23 21 21 19 15 11 10 12 11 12 13 13 12 12 12 12 12 11 11 12 11 11 14 21 25 25 24 20 19 19 18 16 13 12 10 9 9 9 9 9 10 11 10 9 7 7 6 5 4 3 2 3 3
16 16 15 14 14 14 15 15 14 16 18 20 21 21 23 27 29 30 33 36 39 41 41 42 42 40 38 35 31 29 28 28 25 23 22 20 18 14 12 11 11 13 13 15 16 13 9 9 10 11 12 13 12 11 16 24 27 26 24 21 20 20 18 15 13 12 10 9 10 10 10 9 9 8 7 7 7 6 5 4 3 2 3 4 5
18 18 17 16 17 17 17 17 17 16 17 19 21 21 21 23 27 29 29 31 37 41 42 41 41 41 41 38 36 34 30 27 28 26 25 23 21 19 15 10 9 11 12 14 17 16 13 10 11 14 15 16 16 14 20 26 27 26 25 23 22 20 17 16 14 12 11 10 10 10 9 9 8 7 6 6 7 6 5 4 2 2 3 4 6
19 19 18 17 17 17 17 17 17 17 17 18 18 20 21 21 23 26 27 28 32 38 41 41 41 41 41 40 38 37 32 27 28 28 27 26 23 22 20 15 10 9 10 12 14 14 15 14 12 15 16 17 18 19 23 27 26 26 26 25 23 20 17 16 14 13 12 10 9 9 9 8 7 7 7 7 7 6 5 4 3 3 4 5 6
19 19 19 18 17 18 18 18 18 18 18 18 18 19 21 21 21 23 25 27 29 34 40 42 42 42 41 39 38 38 35 28 27 28 27 27 26 24 23 21 17 12 9 10 12 12 15 15 13 14 16 17 19 22 25 28 27 27 27 25 24 21 18 17 15 13 12 10 9 8 7 7 7 7 7 7 6 6 5 4 3 3 4 6 7
19 20 20 19 19 18 19 19 19 19 19 19 19 19 19 21 22 22 24 26 29 32 36 41 44 43 40 39 38 38 38 33 29 29 29 28 28 27 25 25 23 18 13 10 11 14 18 16 13 16 20 20 21 25 29 30 29 29 27 25 23 21 19 16 15 14 12 10 8 7 7 6 7 7 7 7 7 6 5 4 4 4 5 6 8
19 20 20 20 20 19 19 19 19 20 20 20 20 19 20 21 21 22 23 24 28 31 32 37 42 43 41 40 39 37 37 35 31 30 30 30 31 30 28 27 26 24 20 13 10 14 20 18 15 18 22 23 24 28 31 31 30 28 26 25 23 21 19 16 15 13 12 10 8 7 7 6 7 7 7 7 6 6 5 5 4 5 6 7 9
19 20 20 21 21 20 20 20 20 20 20 21 20 20 21 21 22 23 23 23 26 28 30 33 38 43 44 43 43 40 37 35 33 31 30 31 33 32 30 29 28 26 24 20 13 12 16 19 20 21 23 26 29 32 33 32 29 27 26 25 23 22 20 18 16 14 12 10 9 8 7 6 6 6 6 7 6 6 5 5 5 5 6 8 10
20 20 21 22 22 22 21 21 22 22 22 22 21 21 22 22 22 23 24 24 25 26 27 29 33 39 44 45 44 43 41 37 34 32 31 31 32 33 32 30 29 27 26 24 17 11 13 15 21 24 26 29 32 34 34 33 30 28 27 25 24 23 22 20 18 15 13 11 9 8 7 6 7 6 6 6 6 6 5 5 5 6 7 9 11
21 21 21 22 22 22 23 23 23 23 24 24 23 23 23 24 23 24 25 25 26 25 25 27 30 33 39 43 42 42 43 40 36 34 34 32 32 34 33 31 29 28 27 27 19 14 15 14 18 23 27 32 35 36 36 34 33 31 29 28 26 24 22 21 20 17 14 12 10 8 8 7 7 7 6 7 6 6 6 5 5 7 8 10 10
21 22 22 22 23 23 23 24 24 25 25 25 25 25 25 25 25 25 25 26 27 27 26 27 28 30 34 38 41 41 41 41 38 36 34 32 33 36 35 32 30 27 27 29 23 16 17 16 18 22 26 31 35 37 37 35 34 32 30 29 27 25 23 21 19 17 14 11 10 9 9 8 8 7 7 7 7 6 6 5 6 7 8 9 9
22 23 23 23 24 25 26 26 26 26 26 25 26 27 27 28 28 27 26 27 29 29 28 27 28 30 33 35 38 40 40 40 39 37 35 32 33 36 34 32 31 27 26 27 25 22 21 18 18 21 24 28 30 36 39 36 33 30 29 30 28 25 24 21 18 16 13 11 10 9 9 9 8 8 7 7 7 6 5 5 6 7 7 7 7
24 24 24 24 25 26 27 27 27 27 27 27 27 27 27 28 29 29 28 28 29 30 30 29 28 30 33 34 35 38 39 38 39 39 38 34 32 34 34 31 29 27 25 24 26 28 26 23 21 21 22 23 24 30 37 37 33 29 28 29 28 26 24 21 18 16 14 12 11 11 10 10 9 8 7 7 6 6 5 5 6 6 6 6 6
26 25 25 25 26 27 27 27 28 28 28 28 28 28 28 28 29 30 30 29 29 31 31 31 30 30 33 35 36 38 39 39 39 41 41 37 32 31 32 31 28 26 25 24 25 29 29 28 27 25 25 28 28 28 32 36 36 33 30 27 26 26 24 22 20 17 16 15 14 13 12 10 9 8 7 7 6 5 5 5 5 5 5 5 6
28 27 26 27 27 28 28 28 28 29 29 29 30 29 29 29 29 29 30 30 30 31 32 32 31 31 32 35 37 40 41 41 43 42 42 41 35 30 31 31 27 26 28 26 26 27 29 29 28 27 28 31 32 30 32 36 35 34 34 29 24 23 24 23 22 21 19 18 16 14 13 11 10 8 7 6 6 5 5 5 5 5 5 5 6
30 29 28 28 29 29 29 30 29 29 30 30 31 31 30 31 31 30 31 32 32 31 32 33 33 32 33 34 38 42 43 43 45 45 43 43 38 32 32 32 28 29 31 29 26 25 27 29 28 28 27 26 28 29 29 33 32 30 33 34 28 25 26 24 23 23 21 19 17 14 13 11 9 8 6 6 6 6 6 6 5 5 5 5 7
30 30 29 29 30 31 31 31 31 30 30 31 31 32 31 31 31 31 31 33 33 31 32 33 33 33 33 34 38 43 44 43 45 46 45 44 41 36 34 32 30 31 32 31 29 26 25 23 22 25 25 21 24 29 31 35 35 31 33 33 29 28 28 25 22 22 21 19 17 15 13 12 10 8 7 6 7 7 5 4 4 5 6 6 7
29 29 29 30 31 31 32 33 33 32 32 32 33 34 35 33 31 31 31 32 33 31 31 33 33 34 34 34 39 43 43 43 45 46 46 45 44 41 37 34 33 34 33 33 32 31 29 23 23 29 27 22 28 38 42 40 37 36 35 32 29 28 26 23 18 19 22 19 16 14 12 13 11 8 8 8 8 7 4 4 5 5 6 6 8
30 30 30 31 31 31 32 33 34 35 34 33 34 36 38 38 36 34 31 31 32 31 32 33 33 33 32 33 39 42 42 44 46 48 48 47 46 44 39 36 37 37 37 35 33 34 32 27 28 33 31 30 35 40 39 35 35 40 39 34 32 29 24 19 15 17 23 21 15 12 11 13 11 8 7 8 7 7 6 6 7 6 6 7 8
32 32 31 32 32 31 31 32 34 36 36 36 36 37 38 39 40 40 36 32 31 31 33 33 33 32 31 33 39 40 40 43 45 47 49 47 47 46 41 39 39 40 42 41 38 38 38 34 32 31 31 35 38 34 32 35 38 39 37 35 36 33 25 19 15 15 23 24 16 11 10 12 11 8 7 8 8 8 8 7 6 5 6 7 8
33 33 33 33 33 32 32 33 34 35 36 36 37 38 40 40 41 43 41 36 33 32 32 33 33 32 31 33 37 37 37 40 42 45 48 48 47 46 41 38 38 40 42 44 43 43 45 45 42 39 39 43 44 42 41 42 39 36 34 35 35 30 23 18 16 16 23 25 18 11 9 10 9 7 6 7 8 8 6 6 5 5 6 7 8
31 32 32 33 33 33 33 33 34 35 36 36 37 39 41 42 43 44 43 39 35 33 33 33 33 33 33 33 34 35 37 39 41 43 44 44 44 42 39 37 38 40 41 42 43 43 45 47 47 47 49 49 50 50 48 45 41 40 40 37 33 27 22 20 18 18 22 23 18 11 8 9 8 7 6 7 8 8 6 6 5 4 5 7 8
29 30 31 32 33 33 33 33 34 34 35 36 37 39 40 42 43 44 43 39 37 36 34 33 33 34 36 35 34 36 38 39 41 42 41 41 39 37 35 35 36 37 37 38 40 40 41 43 45 47 47 45 46 48 47 45 43 42 41 38 33 30 25 20 17 15 16 20 18 11 7 8 8 8 7 7 8 8 6 4 3 2 5 7 8
28 29 30 31 32 33 33 33 33 34 35 36 38 39 41 41 43 44 43 40 38 37 35 34 35 36 37 36 36 38 40 40 41 41 41 40 37 35 34 34 33 33 32 33 36 37 37 38 39 40 40 39 40 42 43 42 40 39 37 34 32 30 24 16 13 12 11 14 17 12 6 7 9 7 6 8 9 9 6 3 2 2 4 7 10
27 28 30 31 31 32 33 33 32 33 34 36 39 40 41 42 43 44 42 39 38 39 36 33 34 34 33 36 39 40 41 42 42 41 41 39 36 36 36 35 33 32 29 28 29 30 30 31 32 33 35 35 35 36 39 40 39 38 36 33 31 28 21 15 12 11 9 10 14 13 7 6 9 7 5 8 10 9 7 4 1 2 5 8 10
28 30 30 31 31 32 32 33 33 32 32 34 36 39 40 42 43 43 39 36 37 38 35 31 30 29 29 34 41 43 44 45 44 42 43 41 37 38 39 37 35 32 30 28 28 26 24 24 25 25 26 28 28 31 35 36 35 35 35 35 34 27 19 13 12 12 10 7 11 13 8 6 7 6 6 9 9 8 7 4 1 3 6 9 12
31 31 30 29 31 32 32 32 32 32 33 33 34 36 37 40 43 41 37 35 36 34 31 29 29 29 29 33 40 44 45 46 45 44 44 43 41 40 41 40 38 35 33 33 33 32 30 27 26 25 26 27 29 31 32 31 32 33 32 32 32 25 16 14 15 13 8 6 11 13 8 6 7 6 6 8 7 7 7 3 0 2 6 10 12
Wind_Direction
207 200 198 196 193 189 190 194 194 195 196 195 197 198 201 208 216 222 227 226 224 221 211 207 207 206 206 206 205 206 204 202 206 211 212 206 201 206 204 198 201 204 197 200 200 193 194 201 207 217 234 201 202 255 230 293 305 45 122 128 123 114 100 86 67 53 45 41 30 23 17 13 11 7 12 30 41 49 62 58 52 53 53 54 53
213 206 199 198 198 196 197 200 201 202 200 199 201 203 203 208 216 224 230 230 226 224 216 208 207 208 206 203 204 207 206 205 208 212 212 208 203 205 206 201 203 209 204 204 201 191 195 208 216 222 235 220 216 242 213 269 296 45 141 134 127 117 102 87 61 53 47 38 22 15 14 11 9 14 32 52 57 58 62 59 57 55 53 53 51
216 214 205 199 203 202 201 204 207 208 205 204 206 209 209 211 217 223 228 231 229 227 218 208 205 208 207 206 206 207 207 208 210 212 210 207 204 202 206 204 207 213 209 207 205 195 198 208 215 222 229 220 227 233 225 269 286 141 143 138 132 118 102 76 57 57 45 28 13 13 14 12 16 34 54 60 61 61 59 55 51 49 47 46 45
219 218 214 206 207 206 203 208 211 211 210 209 211 213 214 214 218 224 227 230 231 228 217 206 203 204 207 207 208 209 209 210 211 212 208 206 205 201 202 205 210 217 216 210 206 203 201 202 208 223 229 222 234 234 222 258 262 166 150 144 138 122 95 60 65 57 33 15 9 18 21 27 45 62 66 62 59 56 51 47 43 39 39 39 39
222 221 221 217 214 210 206 210 213 215 214 212 214 217 217 217 220 224 226 226 226 226 216 204 200 201 204 205 207 208 207 209 212 212 209 206 207 205 203 206 210 218 224 219 211 209 205 203 208 217 218 220 248 259 229 256 249 171 155 150 144 121 76 59 65 39 16 3 12 34 42 51 67 69 64 59 52 47 42 39 36 34 37 36 34
220 220 223 224 221 217 214 214 214 214 213 214 216 218 219 219 220 219 221 221 220 222 215 203 197 198 201 202 204 204 205 209 212 213 211 209 211 211 208 208 210 214 221 222 217 215 213 211 209 208 211 219 246 268 229 262 258 179 162 158 148 117 79 61 44 18 1 2 23 57 68 68 73 66 57 50 42 36 31 31 34 35 36 34 33
223 220 219 222 222 220 218 219 219 215 211 213 217 218 219 219 215 210 212 216 217 216 212 202 195 195 199 200 201 202 204 208 212 213 214 214 218 220 218 215 215 215 215 218 221 221 221 219 214 214 215 214 224 239 226 245 252 201 172 160 145 109 78 43 28 9 339 8 48 92 82 76 70 57 46 39 33 28 26 31 36 35 33 35 39
228 229 226 222 221 221 220 221 220 217 214 212 216 217 216 214 212 209 210 213 214 211 207 201 194 193 198 199 201 204 204 207 210 211 215 217 220 226 228 223 221 222 218 218 221 224 226 225 222 223 225 218 212 215 233 240 240 211 178 160 144 103 45 357 335 248 320 356 102 112 89 76 60 48 38 31 28 26 28 35 37 35 37 41 43
224 232 235 230 227 226 224 224 221 218 217 215 215 217 214 211 210 213 215 213 212 207 200 198 193 192 197 198 201 203 202 204 206 209 215 218 221 227 231 230 229 228 224 222 221 223 226 230 231 232 234 232 222 213 229 233 228 209 179 158 143 105 0 309 257 266 303 342 126 110 88 68 52 42 33 28 28 30 34 38 38 39 43 44 44
226 228 233 234 233 231 229 227 222 219 217 218 219 218 214 211 210 218 219 211 209 205 195 193 191 191 195 196 198 197 198 202 205 208 215 220 222 226 230 232 233 230 226 223 222 221 222 229 233 235 239 241 238 226 218 222 218 204 182 170 178 175 286 241 238 283 261 141 121 104 79 59 47 37 30 30 35 37 39 39 42 45 46 46 47
240 238 238 239 238 237 237 233 225 219 215 217 223 219 214 213 216 221 220 211 207 203 192 187 187 190 193 194 196 197 200 204 208 213 220 224 222 223 229 233 232 230 230 227 226 224 222 226 227 232 238 244 247 235 224 222 207 193 192 203 215 221 214 207 233 282 169 133 115 97 67 50 38 32 32 39 46 44 41 45 50 51 49 50 51
251 253 253 250 246 244 244 244 245 232 216 214 221 220 216 217 219 219 216 209 206 203 192 183 181 185 191 196 199 202 205 207 211 218 223 225 221 222 228 234 236 234 234 230 228 226 224 226 227 228 232 243 251 242 236 227 201 189 198 204 196 196 205 207 236 247 153 130 112 85 57 41 31 32 38 47 55 49 49 54 56 55 54 55 57
251 257 262 261 256 251 249 249 255 247 223 216 219 220 217 217 219 217 212 205 202 203 195 183 180 183 186 194 202 208 212 215 218 222 225 224 221 223 227 237 243 241 237 233 230 227 225 225 227 228 229 236 246 244 240 226 201 192 197 194 181 177 199 210 234 217 152 132 112 74 43 30 29 35 46 55 61 56 60 63 60 58 57 59 62
249 252 253 256 260 257 253 249 251 253 236 220 216 217 216 215 218 214 208 206 203 201 194 187 190 195 190 188 197 209 218 224 227 227 226 225 222 224 230 239 243 242 241 238 232 228 225 224 223 226 229 232 236 238 235 221 205 199 196 189 180 176 195 208 227 208 158 136 116 65 27 22 30 39 51 61 66 66 69 67 63 61 59 61 66
246 249 248 247 251 255 253 244 240 248 244 223 210 213 216 216 218 213 203 205 206 201 196 195 196 195 192 194 198 204 215 221 226 226 225 225 223 224 231 237 239 238 240 238 230 225 222 222 221 224 230 232 232 229 224 218 209 204 197 188 187 186 194 202 217 204 167 145 127 52 13 19 33 45 58 67 72 75 76 70 67 65 62 65 67
263 248 245 245 244 245 250 243 235 235 233 221 212 214 215 214 218 215 203 200 205 203 200 202 201 190 186 195 200 206 219 211 212 219 220 223 225 224 228 233 233 232 237 233 225 221 219 221 221 225 229 227 224 218 214 215 211 206 196 190 195 193 190 198 213 196 170 153 149 35 9 28 44 54 65 75 80 82 80 71 69 70 68 67 67
303 274 253 248 244 242 245 247 242 235 229 223 218 218 217 214 217 217 209 204 203 201 201 206 208 200 193 187 186 209 226 204 198 209 210 216 222 222 227 232 229 228 233 228 218 216 217 218 218 221 223 218 213 210 210 214 213 212 203 195 198 189 185 197 208 189 172 162 170 30 18 40 54 61 72 89 97 96 87 78 80 81 78 75 72
307 300 276 259 251 244 241 244 246 242 236 231 225 220 218 218 218 218 214 210 204 198 199 205 211 212 209 205 202 216 202 183 186 204 202 211 219 218 224 228 226 226 227 221 214 213 214 214 216 217 215 210 206 205 209 212 212 213 206 202 199 185 184 197 196 181 172 166 174 198 48 58 60 65 84 108 114 111 101 94 93 89 84 81 75
301 297 290 275 261 249 242 240 242 244 240 236 231 222 219 220 220 218 217 214 208 205 202 199 206 215 218 219 225 233 196 180 192 203 188 205 213 214 219 221 221 223 222 219 214 215 218 214 212 213 210 206 205 205 209 211 212 209 205 207 197 183 184 194 185 175 170 166 179 211 118 73 65 73 101 122 126 122 112 104 100 92 86 80 73
297 291 288 284 274 259 250 247 243 242 241 238 235 227 221 219 216 217 219 216 211 211 208 198 202 210 213 217 224 227 220 212 212 213 210 203 199 207 214 213 216 222 225 223 217 218 222 216 208 207 207 207 206 206 208 209 210 208 207 204 191 180 184 191 182 173 166 167 186 187 108 75 71 90 119 135 139 133 121 111 104 95 88 80 73
300 291 281 279 281 271 260 256 250 246 244 241 238 233 226 219 215 215 218 218 215 214 212 208 208 208 203 207 216 220 223 228 224 220 227 224 195 196 201 201 211 222 227 225 221 222 222 216 209 205 207 210 208 206 205 204 205 202 198 194 183 179 188 191 181 171 165 170 174 153 111 86 93 108 124 139 142 135 122 110 103 94 86 78 70
301 297 285 275 276 276 269 262 256 252 248 246 243 237 232 226 221 219 219 218 218 216 216 216 216 210 203 202 206 211 217 223 223 219 220 223 221 201 192 194 203 213 219 221 220 221 220 216 212 207 211 213 208 202 197 194 197 192 186 183 181 187 196 189 177 170 169 173 166 152 137 113 109 114 128 144 147 138 125 117 110 102 92 78 65
295 295 292 283 274 273 272 265 260 258 253 250 246 241 237 233 229 227 225 222 220 218 217 219 220 215 210 206 204 206 208 212 214 210 208 213 216 206 195 198 202 201 203 211 217 217 214 215 213 211 214 214 207 197 191 189 187 183 180 181 186 195 196 186 177 175 175 172 165 159 149 131 121 120 130 142 145 144 147 153 154 149 133 93 64
292 289 288 289 282 274 272 266 261 259 257 253 249 245 242 239 235 231 226 223 220 217 216 217 218 217 214 211 209 207 207 208 209 206 207 210 208 209 201 196 200 197 188 192 205 211 210 210 211 211 210 207 202 194 187 184 181 179 180 185 194 196 190 185 181 179 178 173 165 157 147 137 130 126 129 135 143 160 178 190 196 197 209 259 26
290 287 285 284 283 278 273 269 262 259 258 256 254 250 247 245 241 232 225 223 220 218 217 216 216 216 216 215 212 208 207 208 208 206 208 210 210 213 205 193 197 194 182 182 188 193 202 205 203 202 200 197 194 190 186 182 180 183 187 190 196 193 187 186 184 181 180 176 171 164 156 150 143 141 149 161 175 192 199 202 212 232 281 321 345
290 287 285 281 278 276 273 271 267 262 258 256 256 255 253 251 248 240 229 225 223 220 219 218 217 215 215 216 214 212 212 209 207 206 205 207 210 213 208 199 199 194 185 186 187 183 183 192 195 195 198 200 195 183 184 183 182 186 191 189 189 189 186 185 184 182 181 181 182 179 175 174 173 175 187 199 202 203 205 213 235 279 318 339 350
290 287 284 280 275 272 271 270 267 265 261 256 254 255 257 256 254 249 240 232 226 222 221 220 218 217 216 216 216 216 216 211 208 207 207 209 210 209 206 202 201 199 190 188 195 195 182 176 196 205 205 207 206 193 184 184 183 186 189 186 183 184 186 186 184 183 182 184 186 187 191 195 199 203 205 203 203 205 212 225 253 298 322 337 343
290 288 285 280 275 270 267 266 264 264 262 257 253 252 255 258 257 253 248 241 231 223 222 221 220 218 217 216 214 215 216 212 210 210 209 210 210 208 207 206 204 201 195 193 199 198 184 175 189 204 204 204 206 198 185 182 182 183 184 183 179 179 185 187 185 184 182 182 185 188 194 198 201 204 203 203 207 211 216 228 253 289 314 327 332
289 288 286 281 276 270 265 263 262 262 260 257 255 252 251 254 257 256 251 246 239 230 223 222 220 218 217 216 214 214 216 215 212 212 210 209 209 210 211 213 212 207 200 199 199 191 185 184 182 186 192 197 198 191 180 180 182 181 181 181 177 177 182 185 184 181 181 182 185 186 186 191 199 203 208 211 213 217 222 233 254 281 304 316 324
287 286 285 282 278 272 266 262 260 258 258 258 256 253 250 251 253 255 254 249 246 239 228 222 220 218 217 216 215 215 216 216 214 212 210 208 209 211 214 216 217 216 209 203 200 192 187 188 188 187 187 189 191 186 179 180 180 178 179 178 177 177 179 181 181 178 179 181 181 181 178 184 196 204 213 217 218 222 226 235 255 278 300 315 322
285 283 283 281 278 274 268 264 260 257 258 257 256 254 249 248 249 252 253 250 249 247 238 226 220 218 217 215 215 215 214 215 217 213 209 210 212 213 215 216 218 219 214 209 208 192 182 180 185 194 193 187 186 184 179 177 177 178 178 176 176 178 176 175 176 176 178 179 177 176 176 183 195 204 213 217 219 224 228 239 258 283 301 313 320
283 280 280 279 277 274 269 266 262 258 256 255 255 254 250 246 244 247 250 249 248 247 245 236 223 217 216 216 216 215 213 214 217 214 210 212 213 214 216 216 217 218 215 216 217 189 174 175 176 184 191 187 182 182 179 174 174 177 179 177 175 174 172 171 172 175 179 179 177 175 176 185 196 203 211 214 219 225 232 247 263 287 303 313 320
281 279 277 275 274 272 269 266 263 259 256 253 251 252 252 247 242 243 246 247 247 245 243 242 233 221 216 216 218 217 215 215 216 213 210 210 210 213 216 216 217 216 214 218 216 176 158 169 171 175 184 183 179 179 178 174 172 173 175 176 174 173 173 172 171 175 181 180 179 180 182 188 196 203 211 216 223 230 239 255 272 295 310 317 322
280 278 275 273 272 270 267 264 262 260 256 253 250 248 250 248 242 240 241 243 245 245 241 241 239 231 220 215 216 216 215 215 215 213 211 209 208 213 216 215 217 216 212 215 210 168 149 158 160 165 175 179 177 177 178 175 173 173 173 172 172 174 176 175 174 175 180 184 184 184 187 191 196 204 211 219 228 237 248 265 286 305 316 321 323
279 277 275 272 269 267 265 262 259 258 256 253 250 247 246 247 243 238 238 240 242 243 242 239 237 236 228 219 214 213 212 212 213 212 211 210 210 215 218 215 216 214 209 213 209 171 149 157 161 160 168 176 177 177 178 177 174 173 171 171 172 175 176 176 176 176 178 186 187 187 191 193 198 207 214 223 232 242 256 274 296 312 318 322 324
278 276 275 272 269 265 263 260 257 256 255 253 250 247 245 245 244 239 237 238 240 240 241 239 236 234 232 225 216 212 210 210 210 207 208 212 212 215 219 217 215 212 206 207 203 178 155 153 162 165 167 172 176 176 176 175 173 172 170 171 173 174 174 176 179 178 178 184 187 188 193 195 200 209 217 226 236 246 262 282 300 313 317 318 322
278 277 275 272 269 265 262 260 258 255 254 253 250 248 245 243 243 240 237 237 239 240 240 239 236 233 232 229 221 213 209 207 207 204 205 211 214 215 217 215 212 210 203 199 195 186 170 155 156 163 165 166 168 173 176 173 169 169 170 172 173 174 174 177 180 181 178 180 185 187 192 197 202 211 219 228 239 249 263 284 298 306 310 310 318
279 276 274 272 269 267 264 261 258 256 254 252 250 249 246 243 242 239 237 237 237 238 239 238 236 233 231 229 224 217 211 207 206 204 203 208 213 214 213 212 210 205 198 193 190 186 176 163 158 158 163 168 168 170 177 175 171 169 169 169 173 177 179 177 176 177 178 179 181 184 187 192 200 208 218 227 237 252 265 281 289 290 297 305 314
279 275 273 272 270 268 265 262 259 256 254 252 250 249 247 244 242 238 236 235 236 237 237 236 235 233 230 228 224 220 215 210 207 206 204 206 210 210 208 209 207 197 191 189 185 179 172 166 163 161 164 170 172 172 177 178 175 173 171 166 166 174 180 180 178 177 179 182 182 183 187 193 202 208 217 228 237 250 262 267 272 276 287 303 312
278 275 274 273 271 269 265 263 260 256 253 251 249 247 246 244 242 239 235 233 233 235 236 235 234 233 230 227 225 222 218 214 211 209 207 206 207 209 209 207 201 192 189 187 179 173 169 165 165 165 163 164 167 169 172 176 177 177 176 172 165 167 173 177 180 181 181 182 181 181 187 191 198 207 212 224 238 246 257 257 261 271 282 301 312
279 276 275 273 271 269 266 262 259 256 252 249 246 244 242 241 240 239 236 232 230 231 234 235 232 231 229 227 226 225 221 217 213 212 212 209 207 208 209 205 196 189 188 184 177 170 166 161 159 163 164 164 165 166 171 179 182 179 179 175 167 165 168 168 173 180 180 179 179 179 186 187 187 195 194 201 230 240 244 248 251 269 283 300 315
280 278 276 274 271 269 265 262 259 256 252 248 245 241 239 238 238 238 236 232 228 227 231 233 232 231 228 226 228 227 222 218 215 214 213 211 209 210 209 204 196 189 185 181 178 174 171 165 161 163 167 173 177 178 180 183 184 180 177 174 166 161 161 160 165 179 180 178 177 177 187 193 191 193 191 199 226 225 203 218 237 259 286 302 315
280 278 277 274 272 268 264 262 258 255 252 248 245 241 239 237 237 238 237 233 227 225 228 230 231 230 227 225 227 227 223 219 217 215 214 213 212 211 210 206 201 197 192 183 177 176 175 171 170 171 174 181 185 186 182 179 182 182 179 175 168 161 159 158 161 178 184 182 178 175 188 199 198 194 193 201 213 203 192 221 242 262 289 303 314
280 279 277 274 272 269 265 262 258 255 253 250 246 242 239 236 234 236 238 235 229 224 225 227 229 229 226 223 225 226 222 218 215 214 215 215 214 213 212 210 207 206 205 198 190 185 181 177 176 179 184 186 185 184 182 181 182 180 176 175 173 167 165 163 158 173 185 185 181 178 189 200 200 194 195 202 203 200 208 229 246 267 289 304 313
283 280 278 275 273 270 266 262 259 255 253 251 248 244 240 237 235 235 237 236 232 225 222 224 226 226 224 221 222 223 220 217 213 211 210 211 211 211 211 211 209 209 211 210 209 205 196 189 187 190 194 193 189 187 188 186 179 172 173 177 176 170 166 163 161 172 184 186 183 180 185 193 195 193 195 203 200 195 208 230 246 270 290 308 317
285 281 278 276 273 270 266 262 259 256 253 251 249 245 241 238 237 236 235 235 234 228 223 223 224 224 222 218 216 216 216 214 211 208 206 205 204 204 205 206 206 207 208 209 213 213 205 200 202 204 203 201 197 193 191 188 181 179 180 178 173 171 169 168 171 176 181 183 181 181 185 185 187 192 193 195 192 181 191 223 244 278 302 316 327
284 281 279 277 273 270 266 262 259 255 253 251 249 246 243 239 236 235 234 232 232 229 225 224 225 226 224 217 211 211 213 211 209 207 205 203 199 195 196 198 198 199 200 200 203 204 203 205 209 209 205 202 199 194 190 188 186 184 181 176 174 175 171 166 167 166 172 182 183 183 186 178 180 192 192 186 182 172 176 213 242 293 319 331 341
285 281 279 276 273 269 265 261 257 255 253 252 250 245 242 238 234 233 233 231 229 228 226 225 226 227 224 216 209 209 211 210 208 207 205 201 193 184 184 186 186 186 187 191 196 199 201 203 204 203 201 198 196 193 188 184 182 180 175 173 175 174 164 152 152 152 159 179 184 183 179 169 176 189 186 177 175 166 159 178 233 301 333 343 349
289 284 280 276 272 268 264 259 255 254 254 253 251 246 240 236 232 229 229 229 227 226 224 223 224 223 219 214 210 210 211 210 208 206 204 199 188 177 174 172 170 172 175 181 190 196 199 201 199 200 199 195 193 194 190 186 185 181 173 167 170 170 162 151 155 157 153 167 178 181 178 170 176 183 173 168 170 165 155 154 220 320 345 348 349
295 290 285 280 273 266 261 257 253 252 254 253 250 244 238 234 230 226 225 226 224 223 221 218 218 216 215 215 214 212 211 210 207 203 201 197 187 176 172 167 162 163 167 171 175 178 182 185 185 188 190 188 187 189 187 185 184 182 178 174 173 172 165 156 153 149 143 152 172 176 175 172 171 166 154 155 162 166 158 136 82 356 354 351 348
299 296 292 286 277 266 258 254 250 248 250 253 250 244 237 234 229 222 221 222 220 217 213 208 208 210 209 211 212 212 211 209 204 199 197 194 186 177 172 167 160 158 162 167 168 165 163 162 163 163 165 168 170 171 173 175 177 180 185 185 179 172 162 153 149 146 142 157 174 173 171 172 164 150 152 162 168 178 181 177 36 0 358 354 349
Height
841 842 843 844 846 846 847 847 847 848 849 850 851 852 854 855 856 857 858 859 860 861 862 863 864 865 866 867 868 868 869 870 871 871 872 873 873 874 874 875 876 877 878 878 879 880 881 881 881 881 881 881 880 880 880 879 879 879 879 879 878 878 878 878 878 878 878 878 878 877 876 876 875 875 874 873 872 872 871 870 869 868 867 866 865
840 841 842 843 844 845 846 846 847 847 848 849 850 851 853 854 855 856 857 858 859 860 861 862 863 864 865 867 868 868 869 870 870 871 872 873 873 874 874 875 875 876 877 877 878 879 880 880 880 881 880 880 880 880 880 879 879 879 879 879 879 879 879 878 878 878 878 878 878 877 876 876 875 875 874 873 872 872 871 870 869 868 867 866 865
839 840 841 841 842 843 844 845 846 846 847 847 849 850 852 853 854 855 856 857 858 859 860 861 862 863 864 865 867 867 869 869 870 871 872 872 873 873 874 874 875 875 876 877 877 878 879 880 880 880 880 880 880 880 880 880 879 879 879 879 879 879 879 879 879 878 878 878 878 877 877 876 876 875 874 873 873 872 872 871 870 869 867 866 865
838 838 839 840 840 841 843 844 844 845 845 846 848 849 850 852 853 854 855 856 857 857 858 859 861 862 863 864 865 867 868 869 870 871 871 872 872 873 874 874 874 875 875 876 877 877 878 879 879 879 880 880 880 880 880 880 879 879 879 879 879 880 879 879 879 879 878 878 878 877 877 876 876 875 874 874 873 873 872 871 870 869 868 867 866
836 836 837 838 839 840 841 842 843 844 844 845 846 847 849 850 852 853 855 856 856 856 857 858 859 860 862 863 864 866 867 869 870 870 871 871 872 872 873 874 874 874 875 875 876 876 877 878 878 879 879 880 880 880 880 880 879 879 879 880 880 880 880 879 879 879 878 878 878 877 877 876 876 875 875 874 874 873 872 872 871 869 868 867 866
834 834 835 836 837 838 839 840 841 843 843 844 845 846 847 848 850 852 854 855 855 855 856 856 857 859 860 862 863 865 866 868 869 870 870 871 871 871 872 873 874 874 874 875 875 876 876 877 877 878 879 879 879 879 880 880 880 879 880 880 880 880 880 880 879 879 878 878 878 877 877 877 876 875 875 874 874 873 872 872 871 870 869 868 867
832 832 833 834 835 836 837 839 840 841 842 842 843 844 846 847 849 850 852 853 854 854 855 856 856 857 859 860 862 863 865 867 868 869 870 870 870 870 871 872 873 873 874 874 874 875 876 876 877 877 878 878 879 879 879 880 880 879 880 880 880 880 880 880 880 879 879 878 878 878 877 877 876 876 875 874 874 873 872 872 871 870 869 868 868
830 831 832 832 834 834 835 837 838 839 840 841 842 843 844 846 848 849 850 851 852 853 854 855 855 856 858 859 861 862 864 865 866 868 868 869 870 869 870 871 871 872 873 873 874 874 875 876 876 877 877 877 878 878 879 879 879 879 879 880 880 880 880 880 880 879 879 879 879 878 878 877 876 876 875 874 874 873 872 872 871 870 870 869 868
828 829 830 831 832 832 833 834 836 837 838 839 840 841 843 845 847 847 848 849 851 851 852 854 855 855 857 858 859 861 863 864 865 867 867 868 869 869 869 869 870 871 872 872 873 874 874 875 876 876 876 877 877 878 878 879 879 879 879 879 880 880 880 880 879 879 879 879 879 878 878 877 876 876 875 874 874 873 873 872 871 871 870 870 869
826 827 828 829 829 830 831 832 833 834 835 837 837 839 841 843 845 845 846 848 849 850 851 852 854 855 856 857 858 860 861 863 864 865 866 867 867 868 868 868 869 870 870 871 872 873 873 874 874 875 876 876 876 877 877 877 878 878 879 879 879 879 880 879 879 879 879 879 879 878 878 877 876 876 875 875 874 873 873 872 872 871 871 870 869
824 825 826 826 827 828 829 829 830 831 832 833 835 837 839 841 842 843 844 846 847 848 849 851 853 854 855 856 857 859 860 861 862 863 864 865 866 866 867 867 868 868 869 870 871 871 872 873 873 874 875 874 875 876 876 876 876 876 877 878 878 879 879 878 878 879 879 879 879 878 878 877 876 876 875 875 874 874 873 873 872 872 871 871 870
822 823 824 824 824 825 826 827 828 829 828 830 831 833 835 838 839 841 842 844 846 847 848 849 852 854 855 856 856 857 858 859 860 861 862 863 864 865 865 866 866 867 867 868 869 870 870 871 872 873 874 873 873 874 874 874 874 874 875 876 877 878 878 878 878 878 878 879 878 878 878 877 876 876 875 875 875 874 874 873 873 872 872 871 871
820 821 821 822 821 822 823 824 826 827 826 826 827 830 833 835 837 839 840 842 844 845 846 848 850 852 854 855 855 856 857 857 858 859 859 861 862 863 864 864 865 865 866 866 867 868 868 869 870 871 872 872 872 872 872 873 873 873 874 875 876 877 877 877 877 878 878 878 878 878 877 877 876 875 875 875 875 874 874 873 873 872 872 872 871
819 819 819 819 819 819 820 821 822 824 825 824 824 828 831 834 836 836 838 840 841 843 844 845 846 848 850 852 854 855 855 856 856 857 857 858 859 861 862 862 863 864 864 864 865 866 866 867 868 869 870 870 871 871 871 871 872 872 873 874 875 876 876 876 877 877 878 878 878 877 877 876 876 875 875 875 874 874 874 873 873 873 872 872 872
817 817 817 817 818 818 817 818 819 821 822 822 823 826 828 831 833 834 835 838 839 840 841 841 842 844 847 848 849 851 853 853 854 854 855 856 857 858 859 860 861 862 862 862 863 863 864 865 865 866 867 868 868 869 869 870 871 871 872 873 874 874 875 875 876 877 877 878 877 877 876 876 876 875 875 875 874 874 874 874 873 873 873 872 872
817 816 816 816 816 816 816 816 817 818 819 820 821 822 824 828 831 832 833 834 836 837 838 839 839 840 842 843 845 848 848 847 849 851 852 853 854 856 857 858 859 860 860 860 860 861 862 863 863 864 864 865 866 867 868 869 870 870 871 872 872 873 873 874 875 876 877 877 877 876 876 876 876 876 875 875 875 874 874 874 873 873 873 873 872
816 815 815 815 814 815 815 815 816 816 817 818 819 820 823 825 829 830 830 831 832 833 835 837 837 836 837 838 842 844 842 841 845 847 849 850 851 853 854 855 857 857 858 859 859 859 860 861 861 861 862 863 864 865 866 868 868 870 871 871 871 872 872 873 874 875 876 876 876 876 876 875 875 876 876 875 875 875 875 874 874 874 874 874 873
814 814 814 813 813 813 814 814 814 815 815 816 817 819 821 824 827 828 828 828 830 831 831 833 835 836 835 834 835 836 836 838 842 843 845 848 848 850 851 853 854 855 856 857 857 858 858 859 859 860 860 861 862 863 865 866 867 868 870 870 870 871 871 872 873 874 875 875 875 875 875 875 875 875 875 876 876 876 875 875 875 875 875 875 874
812 812 812 812 812 811 811 812 812 813 813 814 815 816 818 820 824 826 826 827 828 828 828 830 832 833 833 833 833 833 834 836 838 839 842 844 845 847 848 850 852 853 854 855 855 856 857 858 858 859 859 860 860 862 863 864 866 867 868 869 869 870 870 871 872 873 874 874 874 875 875 875 875 875 875 876 876 876 876 876 876 876 876 876 875
811 811 811 811 810 810 810 810 810 811 811 812 813 813 815 817 819 822 824 824 824 824 825 826 828 828 830 831 832 833 834 834 834 835 836 838 841 843 846 847 849 850 851 853 854 854 855 856 857 858 858 859 859 860 862 863 864 866 867 868 869 869 869 870 871 872 872 873 873 874 874 874 874 874 875 876 876 876 876 876 876 876 876 876 876
810 809 809 809 809 809 809 808 808 808 809 809 810 811 812 813 815 818 820 821 821 821 823 823 824 824 826 828 830 831 833 833 833 833 833 834 836 838 841 844 846 847 849 850 852 852 853 854 855 857 857 857 858 859 860 862 863 865 866 867 868 869 869 870 871 871 871 872 873 873 873 873 874 874 875 875 876 876 876 876 876 876 876 876 876
809 808 808 807 807 807 807 807 807 807 807 806 807 808 809 810 811 813 815 817 818 819 820 821 821 822 823 824 826 828 829 830 830 831 831 832 833 834 837 840 842 844 846 848 850 851 852 853 853 855 855 856 857 858 859 860 862 863 864 866 867 868 869 870 870 871 871 871 872 873 873 873 873 873 874 875 875 876 876 876 876 876 876 876 876
808 807 807 806 805 805 805 806 805 805 805 805 804 805 805 806 808 809 811 813 814 816 816 817 819 820 820 821 822 822 823 824 825 827 828 829 830 831 833 835 838 840 843 846 848 849 851 851 852 853 854 855 856 857 858 859 860 861 863 865 866 868 870 870 870 870 870 871 871 872 872 872 872 873 873 874 875 875 875 875 875 875 875 875 875
806 806 805 805 804 804 803 803 803 803 803 803 803 803 803 803 804 805 806 808 810 811 812 813 815 816 817 818 818 818 819 820 821 823 825 826 828 829 830 833 835 837 840 843 846 848 849 850 851 852 853 854 854 855 856 857 859 861 863 864 866 868 869 870 870 870 870 871 871 872 872 872 872 872 873 873 874 873 873 873 874 874 874 874 874
804 804 804 804 803 802 802 801 801 801 801 801 801 800 800 800 800 801 802 803 804 807 807 808 810 812 813 814 814 815 816 817 819 821 822 824 826 827 828 831 833 835 838 841 844 846 848 848 850 851 852 853 853 854 855 855 858 860 861 863 865 867 868 869 869 870 870 870 871 872 872 872 872 872 872 872 872 872 872 873 873 873 873 873 873
802 802 802 802 801 800 800 799 798 798 798 798 798 797 797 797 796 797 798 798 799 801 803 804 805 807 809 810 811 812 813 814 816 817 819 822 823 825 827 829 831 833 835 838 841 843 845 846 847 849 850 851 852 853 853 854 856 858 860 862 865 866 867 868 869 869 870 870 871 871 871 871 871 871 871 871 871 871 872 872 872 873 873 873 872
800 799 799 799 798 798 797 796 795 795 794 794 794 794 794 794 793 793 794 795 795 796 798 800 801 802 804 806 808 809 810 811 813 813 815 818 820 822 825 826 829 830 832 835 838 840 841 843 845 846 847 849 850 852 852 854 855 857 859 861 864 865 866 867 868 868 869 870 870 871 871 871 871 870 871 871 871 871 871 871 872 872 872 872 872
797 796 796 796 795 795 794 793 793 792 792 791 791 791 791 791 790 790 790 791 791 791 793 795 796 798 800 801 803 805 807 808 809 810 813 815 817 820 821 823 825 827 829 831 833 836 838 840 843 844 846 848 849 850 851 853 855 856 858 860 862 864 865 866 867 868 868 869 870 870 870 871 871 870 871 871 871 871 871 871 871 871 871 871 871
794 793 792 792 792 791 791 790 790 789 789 788 788 787 788 788 787 787 787 787 788 788 789 790 792 794 796 797 799 801 803 805 805 807 810 812 814 816 818 820 821 822 825 827 829 832 836 838 840 842 844 846 848 849 851 853 854 856 857 859 861 863 864 865 866 867 868 868 869 869 870 870 870 871 871 871 870 870 871 871 871 871 871 870 870
792 790 789 788 788 788 787 787 786 786 786 785 785 784 784 784 784 784 784 784 784 784 784 785 787 790 791 793 795 797 799 801 802 803 806 808 811 813 815 817 818 818 819 822 825 828 833 836 838 839 842 844 846 848 850 852 854 855 857 858 860 861 863 864 865 866 867 867 868 868 869 870 870 870 870 870 870 870 870 870 870 870 870 870 870
789 787 786 785 784 784 783 783 783 782 782 782 781 781 781 781 781 781 780 780 780 779 780 781 782 784 786 788 790 792 794 796 798 799 801 804 807 809 811 813 815 815 816 819 821 824 829 832 835 837 839 842 844 847 849 851 853 855 856 857 859 860 862 863 865 866 866 867 867 868 868 869 870 870 870 870 870 870 870 870 870 870 870 869 869
786 785 783 782 781 780 780 779 779 779 778 778 778 778 777 777 777 777 777 777 776 775 776 777 777 778 780 782 784 786 789 792 794 795 797 799 802 805 808 809 811 812 815 816 817 821 826 828 831 834 836 839 842 845 848 850 853 854 856 856 858 859 861 862 864 865 866 866 866 867 868 869 869 870 870 870 870 870 870 870 870 869 869 868 868
783 781 780 779 778 777 776 775 775 775 774 774 774 774 773 772 773 773 774 774 773 772 772 772 773 773 774 776 778 781 785 788 790 791 793 795 798 801 803 805 807 809 811 814 814 819 825 827 828 831 834 836 840 843 846 849 852 853 855 856 857 858 860 861 863 864 865 865 866 866 867 868 869 869 869 870 870 870 869 869 869 869 868 868 867
779 778 777 775 774 773 772 771 771 770 770 770 770 770 769 769 768 769 769 770 769 769 768 768 768 769 770 771 773 776 780 784 786 787 789 791 794 797 799 801 803 805 807 810 812 816 821 825 827 829 832 835 837 841 844 846 849 851 853 854 856 858 859 860 861 863 864 865 865 866 867 868 869 869 869 869 869 869 869 869 868 868 867 867 866
776 774 773 772 771 769 768 767 766 766 765 765 765 765 765 764 764 764 764 765 765 765 764 764 764 766 767 767 768 771 775 778 780 783 785 788 790 792 795 797 799 801 803 806 809 812 816 822 825 827 830 833 835 838 841 844 847 849 851 853 854 856 858 859 861 862 863 864 865 866 866 867 868 868 868 869 868 868 868 868 867 867 866 866 865
772 770 769 768 767 765 764 762 762 761 761 761 761 760 760 760 759 759 759 760 761 761 760 760 761 761 762 763 764 766 770 773 776 778 781 784 786 788 791 793 795 797 800 803 805 808 812 817 823 826 828 832 834 836 839 842 846 849 850 851 853 856 857 858 860 861 862 864 865 865 866 867 868 868 868 868 868 868 867 867 866 866 865 865 864
768 767 765 764 762 761 759 758 757 756 756 756 756 755 755 755 754 754 754 755 756 756 756 757 757 757 758 759 760 763 765 768 770 773 776 780 782 784 787 789 791 794 797 800 802 804 807 812 818 824 828 831 834 837 838 840 843 847 849 851 852 854 855 857 859 860 862 863 864 865 866 866 867 867 867 867 867 867 866 866 865 865 864 864 863
764 762 761 759 758 756 754 753 752 752 751 751 750 750 750 750 749 749 749 750 751 752 752 752 753 753 754 755 757 759 761 763 765 768 771 775 778 780 783 785 788 791 794 796 799 801 804 808 813 819 823 827 831 835 837 838 839 842 846 849 852 853 853 855 857 859 861 862 863 864 865 866 866 866 867 866 866 866 866 865 865 864 863 863 862
759 758 756 754 753 751 750 748 747 747 746 745 745 745 744 744 744 744 744 745 746 747 747 748 748 749 749 751 752 754 756 758 760 763 766 769 773 776 778 781 785 787 790 793 796 799 802 806 810 814 818 822 826 830 834 837 838 839 841 844 848 851 852 853 855 857 859 861 862 864 865 865 866 866 866 865 865 865 865 864 864 863 862 862 861
754 753 751 749 747 746 744 743 741 741 740 739 739 739 739 739 739 739 739 739 740 742 743 743 744 744 744 746 747 749 751 753 755 758 761 764 768 772 774 777 781 783 786 789 793 796 800 804 808 812 815 820 823 827 832 835 837 837 838 839 842 846 849 851 854 856 858 860 861 863 864 864 865 865 865 864 864 864 864 864 863 862 861 860 860
749 747 746 744 742 740 738 737 735 734 733 732 732 732 732 733 733 733 733 734 734 736 737 738 738 739 739 740 741 743 746 749 751 754 757 759 762 766 769 773 777 779 782 786 790 794 798 802 806 811 815 818 820 822 825 827 829 832 835 838 840 843 846 850 853 855 856 858 860 861 863 863 864 864 864 864 864 863 864 863 862 861 860 859 859
744 742 740 738 736 734 732 730 729 728 726 724 724 725 726 727 728 728 728 728 729 730 732 733 733 733 734 735 736 738 742 745 747 750 753 755 758 762 765 769 772 774 778 783 786 790 794 799 803 806 810 813 814 815 816 819 823 827 831 834 837 840 844 848 851 853 854 856 858 860 861 862 863 863 863 863 863 863 864 863 861 860 859 858 858
739 737 734 732 730 728 726 724 722 720 718 717 717 718 719 721 723 723 722 722 723 724 726 727 727 727 729 730 731 734 737 740 742 745 748 751 754 758 762 764 767 769 773 778 783 787 790 794 798 801 804 806 808 810 812 816 819 822 825 829 832 836 840 843 847 850 852 854 856 858 859 860 861 862 862 862 862 863 863 861 859 859 858 857 857
733 730 728 726 723 721 719 717 715 713 710 709 710 711 712 714 716 718 718 717 717 718 719 720 721 722 723 725 727 729 732 734 737 740 743 747 750 754 758 761 763 766 769 771 776 781 785 789 794 797 797 799 802 805 808 810 813 818 822 826 828 831 835 838 842 845 848 851 854 856 857 858 859 860 860 861 861 861 861 859 858 858 857 857 856
727 724 722 720 717 715 713 710 707 705 703 702 703 704 706 707 709 711 712 712 711 711 712 714 716 717 718 720 722 725 727 730 733 736 738 742 745 750 755 758 761 764 766 768 770 773 775 780 785 788 790 791 793 797 800 804 810 816 821 825 827 830 833 837 840 842 845 848 851 854 855 856 856 858 859 859 860 860 859 858 857 857 856 856 855
722 719 716 713 711 708 706 703 700 698 696 695 696 697 698 700 703 704 706 707 706 705 706 708 710 711 713 715 718 720 723 726 728 731 734 737 741 745 750 755 759 762 764 767 769 770 772 775 778 780 783 785 786 789 795 800 805 811 816 820 825 830 833 836 838 840 843 846 849 852 853 854 854 856 858 858 858 859 858 856 856 855 855 855 854
717 713 710 707 704 701 699 697 694 691 689 689 689 690 691 693 696 698 699 701 701 700 701 703 704 706 709 711 713 715 719 722 724 727 731 734 737 741 746 751 755 759 763 766 768 770 772 774 775 777 780 783 786 790 794 798 802 807 812 818 824 829 832 835 838 841 843 845 847 849 851 852 853 855 856 856 857 857 856 855 854 854 854 853 852
711 708 704 701 697 694 692 690 687 684 682 682 682 683 684 686 689 692 693 695 695 694 695 697 699 701 704 706 708 711 715 718 721 724 727 730 733 736 741 747 752 756 760 764 767 769 771 773 775 778 780 783 788 793 796 800 804 808 813 820 826 829 832 836 839 841 843 844 846 847 849 851 852 854 854 854 855 855 855 854 853 853 853 852 851
705 701 697 693 690 687 685 682 680 678 676 675 675 675 677 680 682 685 687 688 689 689 690 692 695 697 699 701 704 707 711 714 718 721 724 727 731 733 738 744 748 753 758 762 766 769 771 773 776 779 781 785 790 795 799 802 805 808 813 819 824 827 830 833 836 839 842 843 844 846 848 850 851 852 852 852 852 853 853 852 852 851 851 850 850
699 695 691 686 682 679 677 674 673 672 670 668 668 668 670 673 676 678 681 682 683 683 686 688 690 693 695 698 701 704 707 710 714 717 720 723 727 730 734 739 745 750 755 759 763 767 770 773 777 780 784 788 793 797 800 803 806 809 812 815 819 824 827 829 833 837 840 842 843 844 847 849 849 849 850 850 851 851 851 851 850 850 850 849 848
694 689 684 679 674 670 668 666 666 665 664 662 662 663 664 666 669 672 675 677 677 679 682 684 686 689 692 695 698 700 703 706 709 713 716 719 722 726 730 735 741 747 752 755 758 762 767 771 775 780 785 791 795 799 802 805 808 810 812 814 818 822 825 827 831 834 837 840 842 843 846 847 846 847 847 847 848 849 849 849 849 849 849 849 848